Weather History for Wenatchee, WA

Change the Weather History Date:

Friday, August 10, 2012

  Actual Average Record
Temperature  
Mean Temperature 68 °F 68 °F  
Max Temperature 90 °F 84 °F 104 °F (1971)
Min Temperature 46 °F 52 °F 46 °F (2012)
Degree Days  
Heating Degree Days 0 1  
Month to date heating degree days 1 10  
Since 1 June heating degree days 280 249  
Since 1 July heating degree days 39 62  
Cooling Degree Days 3 4  
Month to date cooling degree days 53 46  
Year to date cooling degree days 209 175  
Since 1 June cooling degree days 209 170  
Growing Degree Days 28 (Base 50)    
Moisture  
Dew Point 43 °F    
Average Humidity 32    
Maximum Humidity 54    
Minimum Humidity 10    
Precipitation  
Precipitation 0.00 in 0.01 in 0.09 in (1995)
Month to date precipitation T 0.11  
Year to date precipitation 14.99 10.06  
Snow  
Snow 0.00 in 0.00 in - ()
Month to date snowfall 0.0 0.0  
Since 1 June snowfall 0.0 0.0  
Since 1 July snowfall 0.0 0.0  
Snow Depth 0.00 in    
Sea Level Pressure  
Sea Level Pressure 29.91 in    
Wind  
Wind Speed 12 mph (WNW)    
Max Wind Speed 17 mph    
Max Gust Speed -    
Visibility 10 miles    
Events      
T = Trace of Precipitation, MM = Missing Value Source: NWS Daily Summary

Daily Weather History Graph

Daily Weather History Graph

Search for Another Location

Airport:

Trip Planner

Search our weather history database for the weather conditions in past years. The results will help you decide how hot, cold, wet, or windy it might be!

Date:

Astronomy

Aug. 10, 2012 Rise Set
Actual Time 5:51 AM PDT 8:19 PM PDT
Civil Twilight 5:16 AM PDT 8:54 PM PDT
Nautical Twilight 4:33 AM PDT 9:37 PM PDT
Astronomical Twilight 3:43 AM PDT 10:26 PM PDT
Moon No Moon Rise 3:11 PM PDT (8/10)
Length of Visible Light 15h 37m
Length of Day
14h 28m
Last Quarter, 41% of the Moon is Illuminated
Aug 10
Last Quarter
Aug 17
New
Aug 24
First Quarter
Aug 31
Full
Sep 8
Last Quarter

Hourly Weather History & Observations

Time (PDT) Temp. Dew Point Humidity Pressure Visibility Wind Dir Wind Speed Gust Speed Precip Events Conditions
1:55 AM 70.0 °F 50.0 °F 49% 29.96 in 10.0 mi NW 12.7 mph - N/A   Clear
2:55 AM 69.1 °F 50.0 °F 51% 29.95 in 10.0 mi NW 16.1 mph - N/A   Clear
3:55 AM 66.9 °F 48.9 °F 52% 29.95 in 10.0 mi NW 17.3 mph - N/A   Clear
4:55 AM 66.0 °F 48.9 °F 54% 29.97 in 10.0 mi NW 12.7 mph - N/A   Clear
5:55 AM 64.9 °F 48.0 °F 54% 29.97 in 10.0 mi NNW 11.5 mph - N/A   Clear
6:55 AM 66.0 °F 46.9 °F 50% 29.99 in 10.0 mi NW 12.7 mph - N/A   Clear
7:55 AM 69.1 °F 46.9 °F 45% 29.99 in 10.0 mi NW 12.7 mph - N/A   Clear
8:55 AM 72.0 °F 46.0 °F 40% 29.98 in 10.0 mi NW 12.7 mph - N/A   Clear
9:55 AM 75.9 °F 45.0 °F 33% 29.96 in 10.0 mi NW 12.7 mph - N/A   Clear
10:55 AM 80.1 °F 43.0 °F 27% 29.94 in 10.0 mi NW 13.8 mph - N/A   Clear
11:55 AM 82.0 °F 43.0 °F 25% 29.93 in 10.0 mi West 6.9 mph - N/A   Clear
12:55 PM 84.9 °F 36.0 °F 17% 29.91 in 10.0 mi WSW 5.8 mph - N/A   Clear
1:55 PM 89.1 °F 28.9 °F 12% 29.88 in 10.0 mi Variable 5.8 mph - N/A   Clear
2:55 PM 91.0 °F 28.0 °F 10% 29.86 in 10.0 mi WSW 4.6 mph - N/A   Clear
3:55 PM 91.0 °F 30.9 °F 12% 29.84 in 10.0 mi Calm Calm - N/A   Clear
4:55 PM 93.0 °F 32.0 °F 12% 29.83 in 10.0 mi SW 6.9 mph - N/A   Clear
5:55 PM 93.0 °F 35.1 °F 13% 29.83 in 10.0 mi WNW 11.5 mph - N/A   Clear
6:55 PM 90.0 °F 37.9 °F 16% 29.83 in 10.0 mi WNW 15.0 mph - N/A   Clear
7:55 PM 84.9 °F 46.0 °F 26% 29.85 in 10.0 mi WNW 16.1 mph - N/A   Clear
8:55 PM 81.0 °F 48.0 °F 31% 29.88 in 10.0 mi WNW 11.5 mph - N/A   Clear
9:55 PM 78.1 °F 48.0 °F 35% 29.90 in 10.0 mi NW 12.7 mph - N/A   Clear
10:55 PM 75.9 °F 48.9 °F 38% 29.91 in 10.0 mi NW 16.1 mph - N/A   Clear
11:55 PM 73.9 °F 50.0 °F 43% 29.93 in 10.0 mi NW 11.5 mph - N/A   Clear